Location: *
(43.4667°N, 11.6833°E)
Time: 22:31:57
(UTC+00:00)

IGS 5A - Pass Details

Date: 19 July 2019
Orbit: 584 x 588 km, 97.6° (Epoch: 22 August)

Event Time Altitude Azimuth Distance (km) Brightness Sun altitude
Exits shadow 20:14:43 20° 131° (SE) 1,359 4.7 -13.0°
Maximum altitude 20:17:07 41° 72° (ENE) 861 4.1 -13.3°
Drops below altitude 10° 20:21:01 10° 2° (N) 1,919 6.8 -13.8°
Sets 20:23:16 0° 355° (N) 2,823 7.9 -14.1°
